Location: Annie Crook Mine
(37.9617°N, 107.5764°W)
Time: 15:31:35
(UTC+00:00)

Daily predictions for brighter satellites

Satellite Brightness Start Highest point End
(mag) Time Altitude Azimuth Time Altitude Azimuth Time Altitude Azimuth
Cosmos 1812 3.2 12:12:01 49° S 12:12:01 49° S 12:14:53 10° S
Cosmos 1151 Rocket 3.0 12:10:05 46° N 12:11:20 82° E 12:15:42 10° S
Cosmos 1503 Rocket 3.9 12:12:05 10° SSW 12:17:20 74° WNW 12:22:41 10° NNE
SL-8 R/B 4.3 12:16:55 38° NNW 12:18:08 46° NNE 12:22:44 10° E
Okean 3 Rocket 3.5 12:17:34 10° SSW 12:22:05 73° W 12:26:38 10° N
ATLAS 5 CENTAUR R/B 1.6 12:20:01 15° SSW 12:22:56 61° ESE 12:26:56 10° NE
Cosmos 1766 Rocket 3.4 12:19:48 10° SSW 12:24:04 59° W 12:28:21 10° N
SAR-Lupe-3 4.5 12:20:40 10° NNE 12:24:16 85° E 12:27:52 10° SSW
BREEZE-M DEB 3.0 12:31:18 33° SSW 12:32:28 68° SE 12:38:37 10° NE
Cosmos 1328 Rocket 3.4 12:31:09 17° N 12:34:26 79° W 12:38:45 10° S
Cosmos 2180 Rocket 4.5 12:29:27 10° N 12:35:38 85° E 12:41:45 10° S
CENTAUR R/B 4.2 12:40:22 15° NNW 12:40:44 15° NNW 12:44:41 10° N
H-2A R/B 3.3 12:42:13 34° WSW 12:42:13 34° WSW 12:44:56 10° SW
Meteor 2-6 Rocket 4.1 12:37:19 10° NNW 12:42:39 62° W 12:47:57 10° S
Meteor 1-31 Rocket 2.8 12:39:44 10° N 12:43:34 56° WNW 12:47:24 10° SSW
SL-4 R/B 3.7 12:41:29 10° SSW 12:44:29 28° SE 12:47:38 10° ENE
COSMO-SKYMED 1 2.5 12:40:49 10° S 12:45:07 62° W 12:48:53 13° NNW
Envisat 3.2 12:42:03 10° N 12:46:54 46° WNW 12:51:43 10° SW
MOS 1-B Rocket 4.3 12:44:00 10° S 12:50:04 45° W 12:55:34 10° NNW
Cosmos 1833 4.2 12:45:51 15° NNW 12:50:39 67° WSW 12:56:21 10° S
Cosmos 2098 Rocket 4.4 12:54:27 22° NW 12:54:27 22° NW 12:57:15 10° NNW
Cosmos 1174 3.0 12:51:49 18° SW 12:53:48 56° WNW 12:56:47 10° NNE
Cosmos 1408 Rocket 3.5 12:51:59 10° SSW 12:56:13 57° W 13:00:27 10° N
CZ-4B R/B 4.5 12:52:17 10° N 12:56:29 41° WNW 13:00:39 10° SW
DNEPR-1 R/B 4.3 12:53:22 20° NW 12:56:45 54° WSW 13:02:43 10° SSE
Cosmos 2369 Rocket 3.6 13:03:39 16° NW 13:03:39 16° NW 13:06:48 10° NNW
Cosmos 1743 Rocket 3.5 13:01:52 10° S 13:06:15 88° W 13:10:37 10° N
ATLAS 3B R/B 2.5 13:03:12 10° SW 13:09:40 74° WNW 13:16:27 10° NNE
Landsat 5 4.0 13:05:22 10° S 13:09:40 45° W 13:13:58 10° NNW
CZ-4C R/B 2.9 13:07:45 10° S 13:10:48 48° W 13:13:49 10° NNW
Meteor 1-10 Rocket 4.4 13:06:08 10° NNW 13:11:26 48° W 13:16:44 10° SSW
Cosmos 2228 Rocket 4.1 13:09:40 10° N 13:14:04 50° E 13:18:29 10° SSE
COSMOS 2487 3.7 13:11:00 10° N 13:14:11 39° ENE 13:17:20 10° SE
DELTA 2 R/B (1) 3.6 13:10:34 16° W 13:15:07 75° N 13:20:41 10° E
SJ 16-02 1.6 13:11:04 10° SW 13:15:16 45° WNW 13:19:29 10° N
Cosmos 1602 3.9 13:12:00 10° S 13:15:46 73° E 13:19:34 10° NNE
CZ-2C R/B 3.4 13:12:59 10° SSW 13:17:53 33° W 13:22:43 10° NNW
Cosmos 1515 Rocket 3.8 13:14:36 10° NNW 13:18:45 45° W 13:22:52 10° SSW
Lacrosse 5 4.0 13:14:28 10° S 13:18:53 31° ESE 13:23:19 10° ENE
IRAS Rocket 4.2 13:14:55 10° SSE 13:20:26 80° WSW 13:25:57 10° NNW
FALCON 9 R/B 4.0 13:04:38 13° W 13:24:37 59° SSW 13:30:41 10° SE
NOAA 12 4.0 13:20:04 10° N 13:25:20 78° WNW 13:30:33 10° SSW
FengYun 1-2 T 4.2 13:26:10 10° NNE 13:31:41 86° WNW 13:37:10 10° SSW
Nadezhda 4 Rocket 4.3 13:27:37 10° SSW 13:33:24 42° WNW 13:39:16 10° N
Cosmos 1500 Rocket 4.0 13:29:45 10° SSW 13:33:54 39° WNW 13:38:07 10° N
USA 215 3.4 13:29:04 10° SE 13:35:35 82° NE 13:42:08 10° NW
Cosmos 1500 3.3 13:32:33 10° S 13:36:21 83° E 13:40:10 10° N
ADEOS 4.3 13:34:08 10° N 13:38:43 32° WNW 13:43:16 10° SW
Cosmos 2227 Rocket 4.2 13:34:25 10° N 13:39:00 25° ENE 13:43:35 10° ESE
Sich 1 2.9 13:34:55 10° S 13:39:11 80° W 13:43:29 10° N
Meteor PRIRODA 4.4 13:37:01 10° N 13:40:12 29° WNW 13:43:23 10° SW
Meteor 1-20 Rocket 4.3 13:36:59 10° SSW 13:42:25 57° W 13:48:02 10° N
EO 1 Delta rocket 4.2 13:36:28 10° N 13:42:30 89° WNW 13:47:25 10° S
CZ-4B R/B 3.3 13:39:18 10° N 13:42:30 31° WNW 13:45:44 10° SW
Cosmos 1656 4.1 13:38:03 10° SSW 13:43:25 69° ESE 13:48:49 10° NNE
AQUARIUS 4.1 13:41:11 10° N 13:45:41 79° WNW 13:50:09 10° SSW
Cosmos 1805 Rocket 3.7 13:41:52 10° SSW 13:46:07 50° W 13:50:23 10° N
H-2A R/B 2.1 13:42:05 10° S 13:46:17 62° W 13:50:36 10° NNW
BREEZE-M DEB (TANK) 3.6 13:37:39 10° NW 13:47:33 82° SW 13:50:43 10° SE
